Starlink 32635

operational
NORAD ID: 62155 Int'l Des: 2024-224 Owner: SPXS Country: US Constellation: starlink
LEOCIRCULAR

About Starlink 32635

Description loading...

Live Position

Loading 3D Globe...

Upcoming Passes

Altitude History

Altitude vs Time

uPlot chart will show altitude changes over time

Two-Line Element Set

1 62155U 24224S 25351.18034607 .00023669 00000-0 86615-3 0 9993
2 62155 43.0007 271.6527 0001820 262.2672 97.7973 15.27606963 59611
Epoch: Dec 17, 2025 • Age: 10 hours

Current Status

Altitude 485.0 km
Velocity 7.63 km/s
Sub-Earth Point 33.46°N, 103.62°E
Launch Date Nov 30, 2024
Age 1 years
Type internet

Technical Details

Classification Payload
Mass 730.00 kg
Dry Mass 700.00 kg
Total Mass 730.00 kg
Length 0.30 m
Diameter 4.10 m
Span 29.00 m
Shape Box + pan
Manufacturer SPXS
Bus Type Starlink V2M
Phase Status In Orbit
Owner/State SPXS/US

Large Constellations

Loading constellations...